Weather History for Iowa City, IA

Change the Weather History Date:

Wednesday, December 5, 2012

  Actual Average Record
Temperature  
Mean Temperature 34 °F 29 °F  
Max Temperature 41 °F 37 °F 68 °F (2001)
Min Temperature 26 °F 21 °F -4 °F (2005)
Degree Days  
Heating Degree Days 31 36  
Month to date heating degree days 89 176  
Since 1 July heating degree days 1428 1483  
Cooling Degree Days 0 0  
Month to date cooling degree days 0 0  
Year to date cooling degree days 1266 912  
Moisture  
Dew Point 23 °F    
Average Humidity 61    
Maximum Humidity 76    
Minimum Humidity 45    
Precipitation  
Precipitation 0.00 in 0.07 in 1.32 in (1982)
Month to date precipitation 0.02 0.35  
Year to date precipitation 24.85 35.11  
Sea Level Pressure  
Sea Level Pressure 30.32 in    
Wind  
Wind Speed 9 mph (ESE)    
Max Wind Speed 15 mph    
Max Gust Speed 18 mph    
Visibility 10 miles    
Events      
T = Trace of Precipitation, MM = Missing Value Source: NWS Daily Summary

Daily Weather History Graph

Daily Weather History Graph

Search for Another Location

Airport:

Trip Planner

Search our weather history database for the weather conditions in past years. The results will help you decide how hot, cold, wet, or windy it might be!

Date:

Astronomy

Dec. 05, 2012 Rise Set
Actual Time 7:18 AM CST 4:35 PM CST
Civil Twilight 6:46 AM CST 5:07 PM CST
Nautical Twilight 6:12 AM CST 5:41 PM CST
Astronomical Twilight 5:38 AM CST 6:15 PM CST
Moon 11:29 PM CST (12/5) 11:38 AM CST (12/5)
Length of Visible Light 10h 20m
Length of Day
9h 17m
Waning Gibbous, 59% of the Moon is Illuminated
Dec 5
Waning Gibbous
Dec 6
Last Quarter
Dec 13
New
Dec 19
First Quarter
Dec 28
Full

Hourly Weather History & Observations

Time (CST) Temp. Windchill Dew Point Humidity Pressure Visibility Wind Dir Wind Speed Gust Speed Precip Events Conditions
12:52 AM 34.0 °F 26.6 °F 21.0 °F 59% 30.40 in 10.0 mi North 9.2 mph - N/A   Clear
1:52 AM 33.1 °F 28.7 °F 21.0 °F 61% 30.41 in 10.0 mi Variable 4.6 mph - N/A   Clear
2:52 AM 30.0 °F 24.1 °F 19.9 °F 66% 30.42 in 10.0 mi North 5.8 mph - N/A   Clear
3:52 AM 28.9 °F 22.8 °F 19.9 °F 69% 30.40 in 10.0 mi North 5.8 mph - N/A   Clear
4:52 AM 28.9 °F 20.4 °F 19.9 °F 69% 30.40 in 10.0 mi NE 9.2 mph - N/A   Clear
5:52 AM 28.0 °F 20.8 °F 19.9 °F 72% 30.41 in 10.0 mi NE 6.9 mph - N/A   Clear
6:52 AM 27.0 °F 18.0 °F 18.0 °F 69% 30.44 in 10.0 mi ENE 9.2 mph - N/A   Clear
8:52 AM 28.9 °F 21.1 °F 18.0 °F 64% 30.44 in 10.0 mi East 8.1 mph - N/A   Clear
9:52 AM 30.9 °F 22.2 °F 19.9 °F 64% 30.45 in 10.0 mi East 10.4 mph - N/A   Clear
10:52 AM 35.1 °F 27.9 °F 21.9 °F 59% 30.42 in 10.0 mi ESE 9.2 mph - N/A   Clear
11:52 AM 37.9 °F 32.7 °F 21.0 °F 51% 30.38 in 10.0 mi ESE 6.9 mph - N/A   Clear
12:52 PM 39.0 °F 32.8 °F 21.0 °F 49% 30.35 in 10.0 mi SE 9.2 mph - N/A   Clear
1:52 PM 41.0 °F 34.7 °F 21.9 °F 47% 30.32 in 10.0 mi SE 10.4 mph - N/A   Clear
2:52 PM 39.9 °F 33.9 °F 21.9 °F 49% 30.30 in 10.0 mi SE 9.2 mph - N/A   Clear
3:52 PM 39.9 °F 35.1 °F 21.9 °F 49% 30.28 in 10.0 mi ESE 6.9 mph - N/A   Clear
4:52 PM 37.9 °F 32.7 °F 23.0 °F 55% 30.26 in 10.0 mi ESE 6.9 mph - N/A   Clear
5:52 PM 37.0 °F 31.6 °F 21.9 °F 54% 30.25 in 10.0 mi ESE 6.9 mph - N/A   Clear
6:52 PM 37.0 °F 30.4 °F 21.9 °F 54% 30.22 in 10.0 mi ESE 9.2 mph - N/A   Clear
7:52 PM 36.0 °F 29.0 °F 24.1 °F 62% 30.22 in 10.0 mi ESE 9.2 mph - N/A   Clear
8:52 PM 37.0 °F 29.8 °F 27.0 °F 67% 30.18 in 10.0 mi SE 10.4 mph - N/A   Clear
9:52 PM 37.9 °F 30.9 °F 30.0 °F 73% 30.16 in 10.0 mi SE 10.4 mph - N/A   Clear
10:52 PM 39.0 °F 31.8 °F 32.0 °F 76% 30.14 in 10.0 mi SE 11.5 mph - N/A   Clear
11:52 PM 39.0 °F 31.4 °F 32.0 °F 76% 30.12 in 10.0 mi SE 12.7 mph - N/A   Mostly Cloudy